CZ-3B R/B (43209 NORAD) Tracking and Keplerian Element Data

This shows tracking and keplerian element data for the satellite.

Feedback or suggestion? Click here.




ElementValue
Catalog43209
NameCZ-3B R/B
Epoch Orbit127
Epoch Day72.28228304
Epoch Year2018
RAAN148.5819
Inclination54.9702
Eccentricity0.5770028
Argument of Perigee179.7102
Mean Anonmoly181.0334
Mean Motion4.52323899
Decay Rate0.00209307
L11 43209U 18018C 18072.28228304 .00209307 90725-6 10714-2 0 9998
L22 43209 54.9702 148.5819 5770028 179.7102 181.0334 4.52323899 1274

Live tracking and technical data element details for CZ-3B R/B (NORAD 43209). CZ-3B R/B can be tracked NOW for your location showing map with azimuth and elevation plus other details from your city location.

Track the satellite on the map from your city or location and see movement details for azimuth, elevation, latitude, longitude, range, height, and movement on the map or in text.







IsCatalogInMostPopularTable: catalog: 43209, numindb: 70
Update: records affected: 1



GetName: 43209 CZ-3B R/B

Hit Count: updated at: Fri, 17 Aug 2018 13:19:47 GMT